Regional Weather Roundup
Issued by NWS Midland/Odessa, TX

Skip options and go directly to product.
Home | Oldest Version | Previous Version | Current Version | All | Text Only | Save Text | Print | Product List | Glossary Off

Skip product version selection by date and time.   

681
ASUS44 KMAF 222310
RWRMAF
MIDLAND AREA WEATHER ROUNDUP
NATIONAL WEATHER SERVICE MIDLAND TX
600 PM CDT FRI AUG 22 2014

...IN SOUTHWEST TEXAS AND SOUTHEAST NEW MEXICO...

CITY           SKY/WX    TMP DP  RH WIND       PRES   REMARKS
ALPINE         MOSUNNY   86  56  36 W3        30.11F
ANDREWS        FAIR      94  56  27 SE14G20   29.97F
ARTESIA        PTSUNNY   91  55  29 SW20G31   29.97F
BIG SPRING     SUNNY    100  54  21 SE15G21   29.98F
CARLSBAD       PTSUNNY   94  54  25 SW10G23   29.95R
DRYDEN           N/A    100  56  23 E17       29.92F
FORT STOCKTON  MOSUNNY   94  58  29 SE18G25   29.95F
GUAD PASS      MOSUNNY   78  56  46 W24G32    30.14F
HOBBS          PTSUNNY   93  54  26 SE12G23   29.99F
MARFA          MOSUNNY   86  54  32 SW9       30.12F
MIDLAND AIRPK  SUNNY     97  50  20 SE13      29.96F
MIDLAND INTL   SUNNY     96  54  24 S15       29.96F
ODESSA         SUNNY     94  55  26 S13       29.97F
PECOS          MOSUNNY   87  60  39 W22G29    29.96R
PRESIDIO       FAIR      93  59  31 CALM      29.93F
SEMINOLE       MOSUNNY   92  54  27 S13       29.99F
SNYDER         SUNNY     96  51  21 SE14G21   29.97S
WINK           MOSUNNY   96  56  26 SE14      29.92F
$$
...OTHER STATIONS IN TEXAS...

CITY           SKY/WX    TMP DP  RH WIND       PRES   REMARKS
ABILENE        SUNNY     98  48  18 S18G25    29.97S
AMARILLO       PTSUNNY   95  56  26 SW17G25   29.97S
AUSTIN         MOSUNNY   99  61  28 SE12      29.95F
BROWNSVILLE    MOSUNNY   91  73  55 SE18      29.97S
CORPUS CHRISTI MOSUNNY   92  71  50 SE25      29.97F
DALLAS FTW     MOSUNNY   99  62  29 S14       29.94F HX 100
DEL RIO        SUNNY    102  45  14 SE16G28   29.88F
EL PASO        CLOUDY    76  61  59 CALM      30.07F
HOUSTON INT    MOSUNNY   93  75  55 SE14      29.99F HX 104
LUBBOCK        MOSUNNY   94  57  28 S14G23    29.98F
SAN ANGELO     SUNNY     97  49  19 S16G26    29.97S
SAN ANTONIO    MOSUNNY  100  56  23 S15       29.96F
WACO           SUNNY    100  60  26 S12       29.95F HX 100
WICHITA FALLS  NOT AVBL
$$
...OTHER LOCATIONS IN NEW MEXICO...

CITY           SKY/WX    TMP DP  RH WIND       PRES   REMARKS
ALAMAGORDO     CLOUDY    73  63  68 S9        30.09F
ALBUQUERQUE    PTSUNNY   71  54  54 NE5       30.14F
CANNON AFB     MOSUNNY   84  56  38 S18       30.01F
CLOVIS           N/A     90  54  29 SW15G21   30.03F
HOLLOMAN AFB   CLOUDY    75  61  60 S8        30.07F
ROSWELL        PTSUNNY   90  55  30 SW20      29.97F
RUIDOSO        LGT RAIN  63  57  82 W5        30.25S
SANTA FE       CLOUDY    68  52  56 N10       30.20F
TRUTH OR CONSE MOSUNNY   79  56  45 SE9G18    30.07F
TUCUMCARI      MOSUNNY   86  57  37 W26G36    29.97S
$$

USA.gov is the U.S. government's official web portal to all federal, state and local government web resources and services.